Torino Bric Croce, Italy

11:39 AM CEST on August 24, 2016 (GMT +0200)
Torino Bric Croce

Weather History for LIMK - January, 2013

Change the Weather History Date:

Friday, January 4, 2013

  Actual Average Record
Temperature  
Mean Temperature 52 °F -  
Max Temperature 64 °F 41 °F 64 °F (2013)
Min Temperature 39 °F 31 °F 24 °F (2009)
Degree Days  
Heating Degree Days 14    
Growing Degree Days 2 (Base 50)    
Moisture  
Dew Point 29 °F    
Average Humidity 34    
Maximum Humidity 61    
Minimum Humidity 20    
Precipitation  
Precipitation 0.00 in 0.04 in - ()
Sea Level Pressure  
Sea Level Pressure 30.37 in    
Wind  
Wind Speed 3 mph ()    
Max Wind Speed 10 mph    
Max Gust Speed -    
Averages and records for this station are not official NWS values.
T = Trace of Precipitation, MM = Missing Value Source: Averaged Metar Reports

Daily Weather History Graph

Daily Weather History Graph

Search for Another Location

Airport or City:

Trip Planner

Search our weather history database for the weather conditions in past years. The results will help you decide how hot, cold, wet, or windy it might be!

Date:

Astronomy

Jan. 04, 2013 Rise Set
Actual Time 8:07 AM CET 5:01 PM CET
Civil Twilight 7:33 AM CET 5:34 PM CET
Nautical Twilight 6:56 AM CET 6:11 PM CET
Astronomical Twilight 6:21 AM CET 6:47 PM CET
Moon No Moon Rise 11:21 AM CET (1/4)
Length of Visible Light 10h 00m
Length of Day
8h 53m
Waning Gibbous, 58% of the Moon is Illuminated
Jan 4
Waning Gibbous
Jan 5
Last Quarter
Jan 11
New
Jan 19
First Quarter
Jan 27
Full

Hourly Weather History & Observations

Time (CET) Temp. Windchill Dew Point Humidity Pressure Visibility Wind Dir Wind Speed Gust Speed Precip Events Conditions
12:55 AM 44.6 °F 42.2 °F 32.0 °F 61% 30.45 in - SW 4.6 mph - N/A   Clear
1:55 AM 46.4 °F - 28.4 °F 50% 30.45 in - Calm Calm - N/A   Clear
2:55 AM 51.8 °F - 28.4 °F 41% 30.42 in - Calm Calm - N/A   Clear
3:55 AM 51.8 °F - 23.0 °F 33% 30.42 in - Calm Calm - N/A   Clear
4:00 AM 52 °F - 23 °F 20%  in 31 mi Calm Calm - -   Clear
4:55 AM 51.8 °F - 24.8 °F 35% 30.42 in - West 2.3 mph - N/A   Clear
5:55 AM 53.6 °F - 28.4 °F 38% 30.39 in - West 2.3 mph - N/A   Clear
6:55 AM 53.6 °F - 26.6 °F 35% 30.39 in - WNW 5.8 mph - N/A   Clear
7:00 AM 54 °F - 27 °F 23%  in 31 mi WNW 5.8 mph - -   Clear
7:55 AM 53.6 °F - 24.8 °F 33% 30.39 in - WNW 6.9 mph - N/A   Clear
8:55 AM 53.6 °F - 28.4 °F 38% 30.39 in - WNW 9.2 mph - N/A   Clear
9:55 AM 55.4 °F - 28.4 °F 36% 30.39 in - West 10.4 mph - N/A   Clear
10:00 AM 56 °F - 29 °F 23%  in 31 mi West 10.4 mph - -   Clear
10:55 AM 62.6 °F - 30.2 °F 30% 30.39 in - WSW 8.1 mph - N/A   Clear
11:55 AM 60.8 °F - 28.4 °F 29% 30.39 in - West 3.5 mph - N/A   Clear
12:55 PM 62.6 °F - 30.2 °F 30% 30.39 in - West 4.6 mph - N/A   Clear
1:55 PM 62.6 °F - 32.0 °F 32% 30.36 in - Calm Calm - N/A   Clear
2:55 PM 64.4 °F - 32.0 °F 30% 30.36 in - Calm Calm - N/A   Clear
3:55 PM 59.0 °F - 32.0 °F 36% 30.36 in - WNW 2.3 mph - N/A   Clear
4:00 PM 60 °F - 32 °F 23%  in 31 mi WNW 2.3 mph - -   Scattered Clouds
4:55 PM 59.0 °F - 32.0 °F 36% 30.36 in - WNW 5.8 mph - N/A   Clear
5:55 PM 57.2 °F - 30.2 °F 36% 30.33 in - NW 4.6 mph - N/A   Clear
6:55 PM 57.2 °F - 32.0 °F 38% 30.33 in - WNW 6.9 mph - N/A   Clear
7:00 PM 58 °F - 31 °F 24%  in 31 mi WNW 6.9 mph - -   Partly Cloudy
7:55 PM 57.2 °F - 32.0 °F 38% 30.33 in - WNW 6.9 mph - N/A   Clear
8:55 PM 55.4 °F - 30.2 °F 38% 30.33 in - WNW 8.1 mph - N/A   Clear
9:55 PM 57.2 °F - 30.2 °F 36% 30.33 in - NW 3.5 mph - N/A   Clear
10:00 PM 57 °F - 31 °F 24%  in 31 mi NW 3.5 mph - -   Scattered Clouds
10:55 PM 55.4 °F - 30.2 °F 38% 30.33 in - NW 3.5 mph - N/A   Clear
11:55 PM 57.2 °F - 30.2 °F 36% 30.30 in - WNW 3.5 mph - N/A   Clear